This is the latest recevied weather packets stored in our database for station/object KD8OZS. If no packets are shown the sender has not sent any weather packets the latest 10 day(s).
| Time | Temp. | Humidity | Pressure | Rain* | Wind** | Luminosity | Snow |
|---|---|---|---|---|---|---|---|
| 1787754662 | 23.33° C | 80% | 1009.7 hPa | 0 mm | - | 537 W/m² | - |
| 1787754360 | 23.33° C | 78% | 1009.9 hPa | 0 mm | - | 480 W/m² | - |
| 1787754055 | 22.78° C | 81% | 1009.8 hPa | 0 mm | - | 499 W/m² | - |
| 1787753754 | 21.67° C | 81% | 1009.8 hPa | 0 mm | - | 421 W/m² | - |
| 1787753453 | 21.11° C | 83% | 1009.8 hPa | 0 mm | - | 584 W/m² | - |
| 1787753152 | 20.56° C | 86% | 1009.8 hPa | 0 mm | - | 620 W/m² | - |
| 1787752847 | 20° C | 88% | 1009.9 hPa | 0 mm | - | 596 W/m² | - |
| 1787752546 | 20° C | 87% | 1009.9 hPa | 0 mm | - | 534 W/m² | - |
| 1787752243 | 19.44° C | 87% | 1010.1 hPa | 0 mm | - | 596 W/m² | - |
| 1787751940 | 18.89° C | 90% | 1010.2 hPa | 0 mm | - | 492 W/m² | - |
| 1787751636 | 18.33° C | 94% | 1010 hPa | 0 mm | - | 490 W/m² | - |
| 1787751331 | 17.78° C | 97% | 1010 hPa | 0 mm | - | 464 W/m² | - |
| 1787751026 | 17.22° C | 98% | 1010.1 hPa | 0 mm | - | 470 W/m² | - |
| 1787750721 | 16.67° C | 99% | 1010.4 hPa | 0 mm | - | 442 W/m² | - |
| 1787750421 | 16.11° C | 99% | 1010.5 hPa | 0 mm | - | 429 W/m² | - |
| 1787750116 | 15.56° C | 99% | 1010.2 hPa | 0 mm | - | 321 W/m² | - |
| 1787749812 | 15.56° C | 99% | 1010.4 hPa | 0 mm | - | 280 W/m² | - |
| 1787749508 | 15.56° C | 99% | 1010.4 hPa | 0 mm | - | 369 W/m² | - |
| 1787749208 | 15.56° C | 99% | 1010.7 hPa | 0 mm | - | 504 W/m² | - |
| 1787748897 | 15° C | 99% | 1010.6 hPa | 0 mm | - | 156 W/m² | - |
| 1787748597 | 15° C | 99% | 1010.5 hPa | 0 mm | - | 140 W/m² | - |
| 1787748293 | 14.44° C | 99% | 1010.5 hPa | 0 mm | - | 130 W/m² | - |
| 1787747989 | 14.44° C | 99% | 1010.5 hPa | 0 mm | - | 125 W/m² | - |
| 1787747689 | 14.44° C | 99% | 1010.5 hPa | 0 mm | - | 95 W/m² | - |
| 1787747383 | 14.44° C | 99% | 1010.8 hPa | 0 mm | - | 104 W/m² | - |
* Rain latest hour (hover to see other rain measurements)
** Current wind speed in m/s (hover to see current wind gust speed)